{"data":{"norad_id":57093,"intl_designator":"2023-088AX","name":"STARLINK-6229","alt_names":[],"object_type":"PAYLOAD","status":"ACTIVE","operator":null,"country":"US","launch_date":"2023-06-22","launch_site_code":"AFWTR","launch_vehicle":null,"mission":null,"orbit_class":"UNKNOWN","rcs_meters":null,"size_class":null,"mass_kg":null,"dimensions":null,"purposes":["comms"],"wikipedia_slug":null,"has_3d_model":false,"image_url":null,"decayed_at":null,"tle_current":{"epoch":"2026-05-24T22:43:55.073280Z","epoch_age_seconds":82894,"freshness":"FRESH","line1":"1 57093U 23088AX  26144.94716520  .00004764  00000+0  18244-3 0  9998","line2":"2 57093  43.0020  25.3976 0001361 237.7436 122.3284 15.27595396162160","mean_motion":15.27595396,"eccentricity":0.0001361,"inclination_deg":43.002,"raan_deg":25.3976,"arg_perigee_deg":237.7436,"mean_anomaly_deg":122.3284,"bstar":0.00018244,"rev_number":16216,"period_min":94.265798638215,"perigee_km":482.06919411081,"apogee_km":483.93679641752,"semimajor_km":6861.1399952642,"source":"CELESTRAK","updated_at":"2026-05-25T13:38:18.218447Z"}}}